Regional Weather Roundup
Issued by NWS Northern Indiana

Home | Current Version | Previous Version | Text Only | Print | Product List | Glossary Off
Versions: 1 2 3 4 5 6 7 8 9 10 11 12 13 14 15 16 17 18 19 20 21 22 23 24 25 26 27 28 29 30 31 32 33 34 35 36 37 38 39 40 41 42 43 44 45 46 47 48 49 50

000
ASUS43 KIWX 281510
RWRIWX

KIWX WEATHER ROUNDUP
NATIONAL WEATHER SERVICE NORTHERN INDIANA
1100 AM EDT THU AUG 28 2014

NOTE: "FAIR" INDICATES FEW OR NO CLOUDS BELOW 12,000 FEET WITH NO
SIGNIFICANT WEATHER AND/OR OBSTRUCTIONS TO VISIBILITY.

* THESE STATIONS ARE NOT UNDER NWS QUALITY CONTROL. THEY ALSO MAY NOT
  REPORT WEATHER SUCH AS PRECIPITATION OR FOG.

INZ001>027-281600-
NORTHERN INDIANA

CITY           SKY/WX    TMP DP  RH WIND       PRES   REMARKS
GARY*          MOSUNNY   72  57  60 NE7       30.14S
VALPARAISO     SUNNY     69  60  73 E6        30.14S
MICHIGAN CITY* SUNNY     68  57  68 E3        30.14F
LAPORTE*       SUNNY     67  59  75 E5        30.15S
KNOX*          SUNNY     68  60  74 CALM      30.13S
SOUTH BEND     SUNNY     70  58  65 E6        30.15S
GOSHEN         SUNNY     71  63  75 E5        30.15R
MONTICELLO*    MOSUNNY   71  65  80 E3        30.12S
LOGANSPORT*    SUNNY     72  63  73 E7        30.13F
ROCHESTER*     SUNNY     75  64  69 E6        30.13F
WARSAW*        SUNNY     70  63  78 E5        30.14S
ANGOLA*        CLOUDY    70  59  68 SE8       30.16S
FORT WAYNE     MOSUNNY   70  64  81 E9        30.15R
HUNTINGTON*    MOSUNNY   70  65  84 E3        30.14S
PERU/GRISSOM   SUNNY     73  68  83 E7        30.13S
MARION*        CLOUDY    72  62  70 E7        30.14S

$$
INZ028>050-281600-
CENTRAL INDIANA

CITY           SKY/WX    TMP DP  RH WIND       PRES   REMARKS
LAFAYETTE      CLOUDY    70  64  81 E7        30.11S
KOKOMO*        MOSUNNY   70  63  78 E9        30.13S
MUNCIE*        SUNNY     73  64  73 E8        30.13S
INDIANAPOLIS   PTSUNNY   73  65  75 E8        30.09F

$$
MIZ043>046-050>051-056>058-064>065-071>073-077>080-281600-
SOUTHWEST LOWER MICHIGAN

CITY           SKY/WX    TMP DP  RH WIND       PRES   REMARKS
BATTLE CREEK   CLOUDY    67  57  70 E6        30.18R
BENTON HARBOR  MOSUNNY   68  58  70 E9        30.14F
COLDWATER*     CLOUDY    67  60  79 E5        30.16S
HILLSDALE*     PTSUNNY   67  60  77 CALM      30.17F
HOLLAND        SUNNY     68  56  65 E14       30.17F
GRAND RAPIDS   MOSUNNY   66  54  65 E7        30.19S
KALAMAZOO      CLOUDY    66  58  75 E5        30.17S
STURGIS*       CLOUDY    66  61  82 NE5       30.15F
THREE RIVERS*  CLOUDY    67  60  77 MISG      30.16S

$$
OHZ001>008-015>018-024>025-281600-
NORTHWEST OHIO

CITY           SKY/WX    TMP DP  RH WIND       PRES   REMARKS
WAUSEON*       CLOUDY    68  59  73 VRB8      30.17S
DEFIANCE       SUNNY     69  59  70 E7        30.16R
FINDLAY        PTSUNNY   72  61  68 NE8       30.14F
TOLEDO EXPRESS CLOUDY    69  57  65 NE8       30.16S
TOLEDO METCALF PTSUNNY   69  56  62 E8        30.17R
LIMA           PTSUNNY   72  62  71 E6        30.15R

$$
&&



USA.gov is the U.S. government's official web portal to all federal, state and local government web resources and services.